Radiation Dose at Monitoring Post of Fukushima Daini Nuclear Power Station
Date,Time,MP-1(microSv/h),MP-2(microSv/h),MP-3(microSv/h),MP-4(microSv/h),MP-5(microSv/h),MP-6(microSv/h),MP-7(microSv/h),Wind Direction,Wind Velocity(m/s),Rain
2016/05/28,00:00,0.444,0.254,0.463,0.409,0.386,0.207,0.180,north-northwest,0.9,No
2016/05/28,00:10,0.441,0.256,0.462,0.407,0.386,0.207,0.180,west-northwest,0.5,No
2016/05/28,00:20,0.443,0.254,0.462,0.409,0.386,0.206,0.178,northwest,2.1,No
2016/05/28,00:30,0.440,0.254,0.462,0.407,0.384,0.206,0.179,north-northwest,0.9,No
2016/05/28,00:40,0.443,0.254,0.462,0.409,0.389,0.206,0.180,northwest,1.4,No
2016/05/28,00:50,0.440,0.256,0.463,0.407,0.386,0.206,0.178,northwest,0.5,No
2016/05/28,01:00,0.443,0.255,0.463,0.406,0.388,0.206,0.178,northwest,1.0,No
2016/05/28,01:10,0.441,0.254,0.464,0.408,0.385,0.207,0.180,-,CALM,No
2016/05/28,01:20,0.443,0.256,0.459,0.407,0.387,0.207,0.177,northwest,0.7,No
2016/05/28,01:30,0.440,0.254,0.465,0.410,0.386,0.207,0.178,northwest,1.6,No
2016/05/28,01:40,0.442,0.255,0.461,0.407,0.384,0.207,0.179,west-northwest,1.0,No
2016/05/28,01:50,0.442,0.254,0.465,0.407,0.386,0.207,0.178,north-northwest,1.5,No
2016/05/28,02:00,0.441,0.255,0.460,0.406,0.384,0.206,0.179,north-northwest,1.7,No
2016/05/28,02:10,0.444,0.254,0.463,0.409,0.388,0.205,0.178,north-northwest,1.3,No
2016/05/28,02:20,0.441,0.255,0.461,0.406,0.384,0.206,0.178,north,2.0,No
2016/05/28,02:30,0.445,0.253,0.465,0.409,0.388,0.207,0.178,north-northeast,1.6,No
2016/05/28,02:40,0.441,0.253,0.460,0.407,0.384,0.206,0.178,east-northeast,1.0,No
2016/05/28,02:50,0.443,0.255,0.464,0.407,0.388,0.207,0.178,north,1.6,No
2016/05/28,03:00,0.438,0.253,0.461,0.407,0.385,0.207,0.177,north,2.8,No
2016/05/28,03:10,0.443,0.255,0.464,0.408,0.387,0.206,0.178,north-northeast,1.1,No
2016/05/28,03:20,0.439,0.254,0.461,0.407,0.387,0.206,0.179,north,1.4,No
2016/05/28,03:30,0.445,0.255,0.464,0.407,0.386,0.206,0.178,north-northwest,2.7,No
2016/05/28,03:40,0.440,0.254,0.462,0.406,0.387,0.207,0.178,west,2.0,No
2016/05/28,03:50,0.444,0.255,0.464,0.407,0.385,0.205,0.177,west-northwest,1.4,No
2016/05/28,04:00,0.439,0.255,0.461,0.406,0.387,0.207,0.178,west-northwest,1.3,No
2016/05/28,04:10,0.444,0.254,0.462,0.405,0.385,0.207,0.179,west,1.2,No
2016/05/28,04:20,0.440,0.254,0.462,0.408,0.388,0.207,0.178,north-northwest,1.0,No
2016/05/28,04:30,0.443,0.254,0.463,0.404,0.385,0.206,0.179,north-northwest,1.1,No
2016/05/28,04:40,0.440,0.255,0.462,0.409,0.389,0.207,0.178,north,1.5,No
2016/05/28,04:50,0.443,0.253,0.462,0.405,0.384,0.206,0.178,north,1.4,No
2016/05/28,05:00,0.439,0.254,0.461,0.408,0.389,0.206,0.178,north,1.4,No
2016/05/28,05:10,0.445,0.254,0.462,0.404,0.385,0.206,0.179,north-northwest,1.5,No
2016/05/28,05:20,0.439,0.255,0.462,0.408,0.388,0.206,0.178,north-northwest,1.4,No
2016/05/28,05:30,0.444,0.254,0.462,0.407,0.386,0.206,0.177,north-northeast,1.1,No
2016/05/28,05:40,0.441,0.255,0.461,0.409,0.388,0.207,0.179,northeast,1.1,No
2016/05/28,05:50,0.443,0.255,0.463,0.406,0.386,0.206,0.179,northeast,0.8,No
2016/05/28,06:00,0.441,0.256,0.462,0.409,0.387,0.206,0.178,-,CALM,No
2016/05/28,06:10,0.445,0.254,0.462,0.403,0.386,0.207,0.178,east,0.8,No
2016/05/28,06:20,0.440,0.255,0.463,0.408,0.387,0.207,0.179,south-southeast,0.8,No
2016/05/28,06:30,0.443,0.255,0.462,0.405,0.385,0.207,0.179,south-southeast,1.4,No
2016/05/28,06:40,0.441,0.255,0.462,0.410,0.386,0.206,0.179,southeast,0.8,No
2016/05/28,06:50,0.444,0.256,0.462,0.405,0.385,0.207,0.179,south-southeast,0.9,No
2016/05/28,07:00,0.441,0.254,0.463,0.409,0.386,0.208,0.179,south-southeast,0.7,No
2016/05/28,07:10,0.443,0.256,0.463,0.405,0.388,0.207,0.178,south-southeast,1.0,No
2016/05/28,07:20,0.441,0.255,0.462,0.409,0.389,0.207,0.179,east,1.0,No
2016/05/28,07:30,0.445,0.255,0.464,0.404,0.386,0.206,0.180,northeast,1.3,No
2016/05/28,07:40,0.440,0.256,0.461,0.409,0.389,0.208,0.180,north-northeast,2.1,No
2016/05/28,07:50,0.444,0.257,0.465,0.407,0.385,0.207,0.180,north-northeast,2.6,No
2016/05/28,08:00,0.442,0.256,0.459,0.409,0.388,0.207,0.180,north,1.6,No
2016/05/28,08:10,0.445,0.257,0.464,0.405,0.386,0.207,0.179,north,1.2,No
2016/05/28,08:20,0.442,0.256,0.460,0.408,0.388,0.207,0.180,north-northwest,1.8,No
2016/05/28,08:30,0.443,0.255,0.464,0.407,0.384,0.206,0.179,north-northwest,3.3,No
2016/05/28,08:40,0.444,0.256,0.461,0.406,0.388,0.208,0.180,north,3.0,No
2016/05/28,08:50,0.439,0.254,0.462,0.409,0.386,0.206,0.179,north,2.0,No
2016/05/28,09:00,0.445,0.255,0.462,0.404,0.384,0.206,0.179,north-northeast,0.7,No
2016/05/28,09:10,0.441,0.255,0.459,0.408,0.390,0.206,0.179,-,CALM,No
2016/05/28,09:20,0.438,0.252,0.466,0.407,0.386,0.206,0.178,north-northwest,1.0,No
2016/05/28,09:30,0.443,0.253,0.463,0.403,0.382,0.206,0.178,-,CALM,No
2016/05/28,09:40,0.441,0.257,0.459,0.402,0.385,0.207,0.179,east,1.4,No
2016/05/28,09:50,0.437,0.254,0.464,0.404,0.388,0.207,0.178,southeast,1.9,No
2016/05/28,10:00,0.441,0.252,0.462,0.408,0.386,0.205,0.177,south-southeast,2.1,No
2016/05/28,10:10,0.443,0.254,0.457,0.407,0.384,0.207,0.177,south-southeast,2.3,No
2016/05/28,10:20,0.440,0.256,0.464,0.404,0.385,0.207,0.179,south-southeast,2.2,No
2016/05/28,10:30,0.437,0.255,0.465,0.404,0.389,0.206,0.181,east-southeast,1.9,No
2016/05/28,10:40,0.444,0.254,0.460,0.410,0.388,0.207,0.178,east-southeast,2.0,No
2016/05/28,10:50,0.445,0.256,0.459,0.409,0.385,0.207,0.179,east,2.5,No
2016/05/28,11:00,0.438,0.256,0.466,0.406,0.386,0.207,0.180,east-southeast,1.6,No
2016/05/28,11:10,0.441,0.255,0.464,0.405,0.390,0.206,0.179,east,2.1,No
2016/05/28,11:20,0.447,0.253,0.459,0.404,0.389,0.207,0.179,east-southeast,1.6,No
2016/05/28,11:30,0.444,0.254,0.459,0.411,0.385,0.208,0.178,east,2.8,No
2016/05/28,11:40,0.440,0.258,0.458,0.409,0.384,0.207,0.179,east-southeast,2.4,No
2016/05/28,11:50,0.441,0.256,0.461,0.407,0.384,0.207,0.180,east-southeast,2.1,No
2016/05/28,12:00,0.447,0.254,0.466,0.406,0.390,0.207,0.180,east-southeast,1.4,No
2016/05/28,12:10,0.444,0.256,0.463,0.412,0.390,0.207,0.180,east-southeast,2.4,No
2016/05/28,12:20,0.441,0.257,0.461,0.411,0.387,0.207,0.181,south-southeast,2.5,No
2016/05/28,12:30,0.446,0.256,0.461,0.409,0.384,0.207,0.180,southeast,2.9,No
2016/05/28,12:40,0.449,0.253,0.466,0.406,0.389,0.209,0.178,south-southeast,3.9,No
2016/05/28,12:50,0.443,0.256,0.465,0.413,0.391,0.206,0.180,south-southeast,4.0,No
2016/05/28,13:00,0.439,0.257,0.463,0.411,0.388,0.206,0.180,south,4.5,No
2016/05/28,13:10,0.446,0.256,0.460,0.408,0.386,0.207,0.179,south,5.1,No
2016/05/28,13:20,0.447,0.254,0.461,0.406,0.386,0.209,0.178,south-southeast,5.3,No
2016/05/28,13:30,0.442,0.254,0.467,0.406,0.384,0.208,0.180,south,5.5,No
2016/05/28,13:40,0.439,0.258,0.467,0.412,0.391,0.206,0.180,south,5.6,No
2016/05/28,13:50,0.445,0.259,0.463,0.411,0.392,0.207,0.179,south,6.9,No
2016/05/28,14:00,0.446,0.255,0.461,0.409,0.389,0.208,0.178,south-southeast,7.2,No
2016/05/28,14:10,0.442,0.255,0.461,0.407,0.386,0.208,0.181,south,7.0,No
2016/05/28,14:20,0.442,0.258,0.466,0.410,0.386,0.208,0.178,south,8.3,No
2016/05/28,14:30,0.448,0.258,0.467,0.414,0.391,0.208,0.180,south,9.2,No
2016/05/28,14:40,0.444,0.256,0.462,0.409,0.394,0.209,0.182,south,8.8,No
2016/05/28,14:50,0.443,0.258,0.467,0.413,0.390,0.208,0.181,south,9.4,No
2016/05/28,15:00,0.450,0.258,0.468,0.416,0.387,0.207,0.180,south,9.8,No
2016/05/28,15:10,0.445,0.257,0.464,0.410,0.393,0.207,0.181,south,10.7,No
2016/05/28,15:20,0.447,0.258,0.469,0.415,0.392,0.208,0.180,south,11.5,No
2016/05/28,15:30,0.449,0.256,0.469,0.412,0.391,0.208,0.182,south,11.6,No
2016/05/28,15:40,0.442,0.259,0.467,0.413,0.394,0.209,0.180,south,10.2,No
2016/05/28,15:50,0.449,0.258,0.471,0.415,0.389,0.208,0.182,south,12.3,No
2016/05/28,16:00,0.448,0.256,0.468,0.410,0.391,0.208,0.181,south,11.5,No
2016/05/28,16:10,0.444,0.258,0.467,0.414,0.393,0.209,0.181,south,11.4,No
2016/05/28,16:20,0.449,0.256,0.469,0.412,0.389,0.207,0.181,south,13.2,No
2016/05/28,16:30,0.444,0.258,0.464,0.411,0.386,0.208,0.181,south,12.8,No
2016/05/28,16:40,0.445,0.259,0.470,0.415,0.392,0.207,0.181,south,12.8,No
2016/05/28,16:50,0.450,0.257,0.468,0.409,0.389,0.207,0.179,south,13.0,No
2016/05/28,17:00,0.443,0.258,0.463,0.413,0.385,0.208,0.181,south,13.8,No
2016/05/28,17:10,0.447,0.256,0.470,0.413,0.389,0.208,0.180,south,13.4,No
2016/05/28,17:20,0.447,0.258,0.464,0.413,0.394,0.209,0.180,south,11.5,No
2016/05/28,17:30,0.445,0.257,0.468,0.413,0.389,0.207,0.180,south,11.2,No
2016/05/28,17:40,0.450,0.257,0.469,0.411,0.392,0.209,0.181,south,9.8,No
2016/05/28,17:50,0.444,0.257,0.463,0.415,0.393,0.209,0.180,south,10.2,No
2016/05/28,18:00,0.447,0.257,0.469,0.411,0.388,0.208,0.181,south,9.9,No
2016/05/28,18:10,0.447,0.259,0.466,0.413,0.394,0.210,0.181,south,9.6,No
2016/05/28,18:20,0.444,0.256,0.468,0.411,0.389,0.209,0.181,south-southwest,8.1,No
2016/05/28,18:30,0.449,0.257,0.469,0.413,0.392,0.209,0.180,south-southwest,8.2,No
2016/05/28,18:40,0.444,0.257,0.465,0.414,0.392,0.209,0.181,south-southwest,7.4,No
2016/05/28,18:50,0.447,0.258,0.470,0.411,0.391,0.209,0.181,south-southwest,6.0,No
2016/05/28,19:00,0.445,0.257,0.464,0.416,0.391,0.209,0.182,south-southwest,6.4,No
2016/05/28,19:10,0.447,0.259,0.471,0.410,0.390,0.208,0.182,south-southwest,6.5,No
2016/05/28,19:20,0.447,0.257,0.465,0.415,0.392,0.208,0.181,south-southwest,6.8,No
2016/05/28,19:30,0.444,0.257,0.470,0.411,0.391,0.208,0.180,south-southwest,6.1,No
2016/05/28,19:40,0.448,0.257,0.468,0.415,0.393,0.209,0.182,southwest,6.2,No
2016/05/28,19:50,0.446,0.259,0.469,0.412,0.389,0.209,0.182,southwest,5.7,No
2016/05/28,20:00,0.450,0.257,0.468,0.414,0.395,0.208,0.181,southwest,6.1,No
2016/05/28,20:10,0.445,0.259,0.468,0.411,0.389,0.210,0.181,west-southwest,3.5,No
2016/05/28,20:20,0.447,0.257,0.467,0.414,0.394,0.209,0.181,west-southwest,3.3,No
2016/05/28,20:30,0.447,0.260,0.467,0.412,0.389,0.210,0.181,west-southwest,2.9,No
2016/05/28,20:40,0.449,0.257,0.469,0.414,0.394,0.209,0.182,west-southwest,3.4,No
2016/05/28,20:50,0.445,0.258,0.467,0.414,0.389,0.209,0.181,southwest,3.2,No
2016/05/28,21:00,0.448,0.258,0.469,0.414,0.391,0.208,0.180,west-southwest,3.9,No
2016/05/28,21:10,0.444,0.257,0.467,0.413,0.388,0.209,0.181,southwest,4.4,No
2016/05/28,21:20,0.449,0.257,0.470,0.413,0.393,0.208,0.181,southwest,3.3,No
2016/05/28,21:30,0.445,0.258,0.467,0.414,0.388,0.210,0.181,west-southwest,5.1,No
2016/05/28,21:40,0.450,0.259,0.470,0.414,0.393,0.209,0.181,west,3.8,No
2016/05/28,21:50,0.446,0.257,0.467,0.415,0.390,0.210,0.181,west-southwest,3.1,No
2016/05/28,22:00,0.447,0.259,0.468,0.413,0.391,0.209,0.181,west-northwest,3.9,No
2016/05/28,22:10,0.444,0.257,0.466,0.413,0.390,0.208,0.181,west,5.6,No
2016/05/28,22:20,0.448,0.258,0.470,0.413,0.394,0.209,0.181,west,4.7,No
2016/05/28,22:30,0.444,0.258,0.468,0.413,0.389,0.209,0.182,west-southwest,3.0,No
2016/05/28,22:40,0.448,0.258,0.470,0.414,0.392,0.208,0.182,west,3.5,No
2016/05/28,22:50,0.445,0.257,0.466,0.412,0.389,0.209,0.181,west,5.4,No
2016/05/28,23:00,0.449,0.258,0.469,0.415,0.392,0.209,0.181,west-northwest,3.2,No
2016/05/28,23:10,0.445,0.258,0.465,0.411,0.390,0.209,0.181,west-northwest,5.2,No
2016/05/28,23:20,0.449,0.257,0.470,0.414,0.391,0.209,0.181,west-northwest,4.3,No
2016/05/28,23:30,0.445,0.258,0.464,0.412,0.388,0.208,0.181,west,3.9,No
2016/05/28,23:40,0.448,0.256,0.471,0.413,0.392,0.209,0.181,west,3.6,No
2016/05/28,23:50,0.444,0.258,0.465,0.412,0.387,0.209,0.181,west,5.2,No
